Flag for U.S.A. Weather past 2 weeks in Charleston, West Virginia, U.S.A.

Now
44 °F

Light rain. Overcast.


Feels Like: 41 °F
Forecast: 36 / 47 °F
Wind: 6 mph from West

Location: Yeager Airport

Current Time: Mar 27, 2015 at 12:31:09 AM

Latest Report: Mar 26, 2015 at 10:54 PM


Visibility: 7 mi

Pressure: 29.91 "Hg

Humidity: 93%

Dew point: 42 °F

Location of CharlestonLocation

Historic Weather in Charleston — Graph

°F

Charleston temperature yesterday

Maximum temperature yesterday: 71 °F (at 12:54 PM)
Minimum temperature yesterday: 44 °F (at 9:54 PM)
Average temperature yesterday: 56 °F

Past Weeks' High & Low Weather Summary

 TemperatureHumidityPressure
High76 °F (Mar 25, 4:54 PM)97% (Mar 13, 10:54 PM)30.54 "Hg (Mar 13, 10:54 PM)
Low30 °F (Mar 18, 4:54 AM)16% (Mar 18, 3:54 PM)29.68 "Hg (Mar 26, 1:54 PM)
Average50 °F59%30.12 "Hg
* Reported Mar 11 10:54 PM — Mar 26 10:54 PM, Charleston, Weather by CustomWeather, © 2015

Note: Actual official high and low records may vary slightly from our data, if they occured in-between our weather recording intervals... More about our weather records

Advertising

Charleston weather history for previous 24 hours

 ConditionsComfort  
Time TempWeatherWind HumidityBarometerVisibility
10:54 PM
Thu, Mar 26
44 °FLight rain. Overcast.6 mph93%29.91 "Hg7 mi
9:54 PM44 °FLight rain. Mostly cloudy.3 mph89%29.88 "Hg10 mi
8:54 PM45 °FLight rain. Overcast.8 mph90%29.89 "Hg10 mi
7:54 PM46 °FLight rain. Mostly cloudy.9 mph89%29.86 "Hg7 mi
6:54 PM47 °FLight rain. Mostly cloudy.5 mph90%29.83 "Hg9 mi
5:54 PM47 °FLight rain. Mostly cloudy.7 mph90%29.82 "Hg9 mi
4:54 PM49 °FOvercast.13 mph86%29.80 "Hg10 mi
3:54 PM52 °FLight rain. Mostly cloudy.13 mph93%29.76 "Hg10 mi
3:01 PM54 °FRain. Fog.9 mph90%29.74 "Hg4 mi
2:03 PM64 °FBroken clouds.18 mph63%29.72 "Hg10 mi
1:54 PM71 °FBroken clouds.15 mph45%29.68 "Hg10 mi
12:54 PM71 °FPartly sunny.20 mph47%29.71 "Hg10 mi
11:54 AM70 °FPartly sunny.17 mph49%29.74 "Hg10 mi
10:54 AM69 °FBroken clouds.14 mph49%29.76 "Hg10 mi
9:54 AM68 °FBroken clouds.14 mph53%29.78 "Hg10 mi
8:54 AM64 °FBroken clouds.10 mph63%29.79 "Hg10 mi
7:54 AM62 °FPartly cloudy.7 mph67%29.80 "Hg10 mi
6:54 AM59 °FPartly cloudy.8 mph69%29.81 "Hg10 mi
5:54 AM56 °FPartly cloudy.8 mph75%29.82 "Hg10 mi
4:54 AM52 °FOvercast.No wind80%29.85 "Hg10 mi
3:54 AM51 °FPassing clouds.No wind83%29.89 "Hg10 mi
2:54 AM53 °FPassing clouds.No wind77%29.92 "Hg10 mi
1:54 AM55 °FPassing clouds.No wind72%29.93 "Hg10 mi
12:54 AM55 °FPassing clouds.No wind72%29.96 "Hg10 mi
Weather by CustomWeather, © 2015

See weather overviewHow to use our weather pages